Time,TemperatureF,DewpointF,PressureIn,WindDirection,WindDirectionDegrees,WindSpeedMPH,WindSpeedGustMPH,Humidity,HourlyPrecipIn,Conditions,Clouds,dailyrainin,SoftwareType,DateUTC
2013-08-07 00:01:00,73.1,69.0,29.88,South,180,16.1,18.0,86,0.00,,,0.00,Rainwise IP-100,2013-08-07 04:01:00,
2013-08-07 00:06:00,73.2,69.0,29.88,South,180,12.8,19.0,86,0.00,,,0.00,Rainwise IP-100,2013-08-07 04:06:00,
2013-08-07 00:11:00,73.2,69.0,29.88,South,180,13.3,18.0,86,0.00,,,0.00,Rainwise IP-100,2013-08-07 04:11:00,
2013-08-07 00:16:00,73.0,69.0,29.87,SSW,202,15.4,18.0,86,0.00,,,0.00,Rainwise IP-100,2013-08-07 04:16:00,
2013-08-07 00:21:00,73.0,69.0,29.87,SSW,202,10.7,18.0,86,0.00,,,0.00,Rainwise IP-100,2013-08-07 04:21:00,
2013-08-07 00:26:00,72.9,69.0,29.88,SSW,202,12.4,21.0,86,0.00,,,0.00,Rainwise IP-100,2013-08-07 04:26:00,
2013-08-07 00:31:00,72.6,68.0,29.88,SW,225,7.0,19.0,86,0.00,,,0.00,Rainwise IP-100,2013-08-07 04:31:00,
2013-08-07 00:36:00,72.4,68.0,29.88,South,180,7.7,18.0,87,0.00,,,0.00,Rainwise IP-100,2013-08-07 04:36:00,
2013-08-07 00:41:00,72.4,68.0,29.88,South,180,10.5,18.0,87,0.00,,,0.00,Rainwise IP-100,2013-08-07 04:41:00,
2013-08-07 00:46:00,72.6,68.0,29.87,SSW,202,7.0,20.0,87,0.00,,,0.00,Rainwise IP-100,2013-08-07 04:46:00,
2013-08-07 00:51:00,72.5,68.0,29.88,SSW,202,16.8,21.0,87,0.00,,,0.00,Rainwise IP-100,2013-08-07 04:51:00,
2013-08-07 00:56:00,72.3,68.0,29.87,SSE,157,8.6,23.0,87,0.00,,,0.00,Rainwise IP-100,2013-08-07 04:56:00,
2013-08-07 01:01:00,72.0,68.0,29.87,SSW,202,9.3,19.0,88,0.00,,,0.00,Rainwise IP-100,2013-08-07 05:01:00,
2013-08-07 01:06:00,71.8,68.0,29.88,South,180,11.4,19.0,88,0.00,,,0.00,Rainwise IP-100,2013-08-07 05:06:00,
2013-08-07 01:11:00,71.6,68.0,29.88,SSW,202,14.0,18.0,88,0.00,,,0.00,Rainwise IP-100,2013-08-07 05:11:00,
2013-08-07 01:16:00,71.6,68.0,29.87,South,180,12.6,18.0,89,0.00,,,0.00,Rainwise IP-100,2013-08-07 05:16:00,
2013-08-07 01:21:00,71.7,68.0,29.87,SSW,202,12.1,19.0,89,0.00,,,0.00,Rainwise IP-100,2013-08-07 05:21:00,
2013-08-07 01:26:00,71.7,68.0,29.87,SSW,202,2.6,20.0,89,0.00,,,0.00,Rainwise IP-100,2013-08-07 05:26:00,
2013-08-07 01:31:00,71.7,68.0,29.87,SSW,202,14.0,17.0,88,0.00,,,0.00,Rainwise IP-100,2013-08-07 05:31:00,
2013-08-07 01:36:00,71.6,68.0,29.87,SSW,202,15.4,18.0,88,0.00,,,0.00,Rainwise IP-100,2013-08-07 05:36:00,
2013-08-07 01:41:00,71.6,68.0,29.87,SW,225,10.3,21.0,89,0.00,,,0.00,Rainwise IP-100,2013-08-07 05:41:00,
2013-08-07 01:46:00,71.8,68.0,29.86,South,180,5.1,18.0,88,0.00,,,0.00,Rainwise IP-100,2013-08-07 05:46:00,
2013-08-07 01:51:00,71.7,68.0,29.86,SSW,202,2.1,19.0,88,0.00,,,0.00,Rainwise IP-100,2013-08-07 05:51:00,
2013-08-07 01:56:00,71.2,67.0,29.86,SSW,202,16.8,19.0,88,0.00,,,0.00,Rainwise IP-100,2013-08-07 05:56:00,
2013-08-07 02:01:00,70.6,67.0,29.86,WSW,247,6.8,19.0,90,0.00,,,0.00,Rainwise IP-100,2013-08-07 06:01:00,
2013-08-07 02:06:00,70.3,67.0,29.86,SW,225,9.6,20.0,91,0.00,,,0.00,Rainwise IP-100,2013-08-07 06:06:00,
2013-08-07 02:11:00,70.2,67.0,29.87,SW,225,7.7,19.0,91,0.00,,,0.00,Rainwise IP-100,2013-08-07 06:11:00,
2013-08-07 02:16:00,70.2,67.0,29.86,SW,225,10.5,19.0,92,0.00,,,0.00,Rainwise IP-100,2013-08-07 06:16:00,
2013-08-07 02:21:00,70.0,67.0,29.86,SW,225,9.6,19.0,92,0.00,,,0.00,Rainwise IP-100,2013-08-07 06:21:00,
2013-08-07 02:26:00,70.0,67.0,29.86,South,180,11.0,17.0,92,0.00,,,0.00,Rainwise IP-100,2013-08-07 06:26:00,
2013-08-07 02:31:00,70.0,67.0,29.86,SSW,202,17.5,21.0,92,0.00,,,0.00,Rainwise IP-100,2013-08-07 06:31:00,
2013-08-07 02:36:00,70.0,68.0,29.86,SW,225,15.4,18.0,93,0.00,,,0.00,Rainwise IP-100,2013-08-07 06:36:00,
2013-08-07 02:41:00,70.1,68.0,29.87,SW,225,10.0,20.0,93,0.00,,,0.00,Rainwise IP-100,2013-08-07 06:41:00,
2013-08-07 02:46:00,70.3,67.0,29.86,SSW,202,7.9,19.0,92,0.00,,,0.00,Rainwise IP-100,2013-08-07 06:46:00,
2013-08-07 02:51:00,70.4,68.0,29.87,SSW,202,16.8,20.0,92,0.00,,,0.00,Rainwise IP-100,2013-08-07 06:51:00,
2013-08-07 02:56:00,70.5,68.0,29.85,SSW,202,18.7,19.0,92,0.00,,,0.00,Rainwise IP-100,2013-08-07 06:56:00,
2013-08-07 03:01:00,70.6,68.0,29.86,SSW,202,15.4,20.0,92,0.00,,,0.00,Rainwise IP-100,2013-08-07 07:01:00,
2013-08-07 03:06:00,70.5,68.0,29.86,SSW,202,18.0,20.0,92,0.00,,,0.00,Rainwise IP-100,2013-08-07 07:06:00,
2013-08-07 03:11:00,70.4,68.0,29.86,SSW,202,14.0,20.0,92,0.00,,,0.00,Rainwise IP-100,2013-08-07 07:11:00,
2013-08-07 03:16:00,70.5,68.0,29.86,SW,225,14.5,20.0,92,0.00,,,0.00,Rainwise IP-100,2013-08-07 07:16:00,
2013-08-07 03:21:00,70.5,68.0,29.87,SSW,202,11.7,18.0,93,0.00,,,0.00,Rainwise IP-100,2013-08-07 07:21:00,
2013-08-07 03:26:00,70.5,68.0,29.86,SW,225,12.8,17.0,93,0.00,,,0.00,Rainwise IP-100,2013-08-07 07:26:00,
2013-08-07 03:31:00,70.6,68.0,29.86,South,180,10.5,18.0,93,0.00,,,0.00,Rainwise IP-100,2013-08-07 07:31:00,
2013-08-07 03:36:00,70.6,68.0,29.86,SW,225,13.8,18.0,93,0.00,,,0.00,Rainwise IP-100,2013-08-07 07:36:00,
2013-08-07 03:41:00,70.5,68.0,29.86,SW,225,11.9,17.0,93,0.00,,,0.00,Rainwise IP-100,2013-08-07 07:41:00,
2013-08-07 03:46:00,70.5,68.0,29.86,South,180,15.2,18.0,93,0.00,,,0.00,Rainwise IP-100,2013-08-07 07:46:00,
2013-08-07 03:51:00,70.5,68.0,29.85,SW,225,10.5,19.0,93,0.00,,,0.00,Rainwise IP-100,2013-08-07 07:51:00,
2013-08-07 03:56:00,70.6,68.0,29.85,SSW,202,12.6,21.0,93,0.00,,,0.00,Rainwise IP-100,2013-08-07 07:56:00,
2013-08-07 04:01:00,70.6,68.0,29.85,SSW,202,16.8,21.0,93,0.00,,,0.00,Rainwise IP-100,2013-08-07 08:01:00,
2013-08-07 04:06:00,70.7,68.0,29.84,SSW,202,13.8,19.0,93,0.00,,,0.00,Rainwise IP-100,2013-08-07 08:06:00,
2013-08-07 04:11:00,70.7,68.0,29.86,SSW,202,6.5,19.0,93,0.00,,,0.00,Rainwise IP-100,2013-08-07 08:11:00,
2013-08-07 04:16:00,70.4,68.0,29.85,WSW,247,5.1,16.0,93,0.00,,,0.00,Rainwise IP-100,2013-08-07 08:16:00,
2013-08-07 04:21:00,70.1,68.0,29.85,SW,225,10.3,18.0,93,0.00,,,0.00,Rainwise IP-100,2013-08-07 08:21:00,
2013-08-07 04:26:00,70.1,68.0,29.85,SSW,202,10.7,18.0,94,0.00,,,0.00,Rainwise IP-100,2013-08-07 08:26:00,
2013-08-07 04:31:00,70.0,68.0,29.85,South,180,11.0,16.0,94,0.00,,,0.00,Rainwise IP-100,2013-08-07 08:31:00,
2013-08-07 04:36:00,69.9,68.0,29.85,SSE,157,5.6,18.0,94,0.00,,,0.00,Rainwise IP-100,2013-08-07 08:36:00,
2013-08-07 04:41:00,70.0,68.0,29.85,South,180,8.6,16.0,95,0.00,,,0.00,Rainwise IP-100,2013-08-07 08:41:00,
2013-08-07 04:46:00,70.1,68.0,29.85,SSW,202,10.0,16.0,95,0.00,,,0.00,Rainwise IP-100,2013-08-07 08:46:00,
2013-08-07 04:51:00,70.2,68.0,29.85,SSW,202,8.9,15.0,95,0.00,,,0.00,Rainwise IP-100,2013-08-07 08:51:00,
2013-08-07 04:56:00,70.1,68.0,29.85,South,180,11.4,17.0,95,0.00,,,0.00,Rainwise IP-100,2013-08-07 08:56:00,
2013-08-07 05:01:00,70.1,68.0,29.84,SSW,202,10.7,18.0,95,0.00,,,0.00,Rainwise IP-100,2013-08-07 09:01:00,
2013-08-07 05:06:00,70.2,68.0,29.84,SW,225,4.9,15.0,95,0.00,,,0.00,Rainwise IP-100,2013-08-07 09:06:00,
2013-08-07 05:11:00,70.2,68.0,29.84,SSW,202,9.3,16.0,95,0.00,,,0.00,Rainwise IP-100,2013-08-07 09:11:00,
2013-08-07 05:16:00,70.2,68.0,29.84,South,180,7.9,15.0,95,0.00,,,0.00,Rainwise IP-100,2013-08-07 09:16:00,
2013-08-07 05:21:00,70.2,68.0,29.84,SW,225,11.4,15.0,95,0.00,,,0.00,Rainwise IP-100,2013-08-07 09:21:00,
2013-08-07 05:26:00,70.2,68.0,29.83,SW,225,8.2,16.0,95,0.00,,,0.00,Rainwise IP-100,2013-08-07 09:26:00,
2013-08-07 05:31:00,70.2,68.0,29.83,South,180,9.3,16.0,95,0.00,,,0.00,Rainwise IP-100,2013-08-07 09:31:00,
2013-08-07 05:36:00,70.4,69.0,29.84,WSW,247,10.0,17.0,95,0.00,,,0.00,Rainwise IP-100,2013-08-07 09:36:00,
2013-08-07 05:41:00,70.3,68.0,29.87,NNE,22,5.8,19.0,94,0.00,,,0.00,Rainwise IP-100,2013-08-07 09:41:00,
2013-08-07 05:46:00,69.5,66.0,29.86,North,360,10.7,19.0,89,0.00,,,0.00,Rainwise IP-100,2013-08-07 09:46:00,
2013-08-07 05:51:00,68.9,63.0,29.86,North,360,7.0,16.0,83,0.00,,,0.00,Rainwise IP-100,2013-08-07 09:51:00,
2013-08-07 05:56:00,68.9,61.0,29.85,NE,45,7.2,21.0,78,0.00,,,0.00,Rainwise IP-100,2013-08-07 09:56:00,
2013-08-07 06:01:00,68.9,61.0,29.85,NNE,22,5.1,13.0,76,0.00,,,0.00,Rainwise IP-100,2013-08-07 10:01:00,
2013-08-07 06:06:00,68.9,60.0,29.84,NNE,22,6.1,8.0,75,0.00,,,0.00,Rainwise IP-100,2013-08-07 10:06:00,
2013-08-07 06:11:00,68.9,60.0,29.84,ESE,112,3.0,12.0,74,0.00,,,0.00,Rainwise IP-100,2013-08-07 10:11:00,
2013-08-07 06:16:00,68.7,60.0,29.82,ENE,67,7.5,8.0,74,0.00,,,0.00,Rainwise IP-100,2013-08-07 10:16:00,
2013-08-07 06:21:00,68.2,60.0,29.85,NNE,22,6.1,9.0,75,0.00,,,0.00,Rainwise IP-100,2013-08-07 10:21:00,
2013-08-07 06:26:00,67.4,60.0,29.84,ENE,67,6.3,10.0,78,0.00,,,0.00,Rainwise IP-100,2013-08-07 10:26:00,
2013-08-07 06:31:00,66.8,60.0,29.85,East,90,4.4,7.0,80,0.00,,,0.00,Rainwise IP-100,2013-08-07 10:31:00,
2013-08-07 06:36:00,66.4,60.0,29.84,NE,45,8.9,9.0,82,0.00,,,0.00,Rainwise IP-100,2013-08-07 10:36:00,
2013-08-07 06:41:00,66.1,60.0,29.85,NNE,22,6.8,11.0,83,0.12,,,0.02,Rainwise IP-100,2013-08-07 10:41:00,
2013-08-07 06:46:00,65.8,60.0,29.85,East,90,3.7,8.0,84,0.36,,,0.06,Rainwise IP-100,2013-08-07 10:46:00,
2013-08-07 06:51:00,65.2,60.0,29.86,East,90,4.7,6.0,86,0.90,,,0.17,Rainwise IP-100,2013-08-07 10:51:00,
2013-08-07 06:56:00,64.7,61.0,29.87,ESE,112,4.4,4.4,88,0.96,,,0.23,Rainwise IP-100,2013-08-07 10:56:00,
2013-08-07 07:01:00,64.2,61.0,29.86,ENE,67,7.5,8.0,90,0.42,,,0.24,Rainwise IP-100,2013-08-07 11:01:00,
2013-08-07 07:06:00,63.7,61.0,29.86,ENE,67,6.3,7.0,92,0.18,,,0.25,Rainwise IP-100,2013-08-07 11:06:00,
2013-08-07 07:11:00,63.7,61.0,29.88,ENE,67,7.7,10.0,92,0.06,,,0.25,Rainwise IP-100,2013-08-07 11:11:00,
2013-08-07 07:16:00,63.9,61.0,29.89,East,90,4.9,9.0,92,0.00,,,0.25,Rainwise IP-100,2013-08-07 11:16:00,
2013-08-07 07:21:00,63.7,61.0,29.91,NE,45,0.0,8.0,93,0.06,,,0.26,Rainwise IP-100,2013-08-07 11:21:00,
2013-08-07 07:26:00,63.5,61.0,29.89,SE,135,3.7,5.0,94,0.12,,,0.27,Rainwise IP-100,2013-08-07 11:26:00,
2013-08-07 07:31:00,63.4,62.0,29.89,ESE,112,2.3,4.0,95,0.12,,,0.28,Rainwise IP-100,2013-08-07 11:31:00,
2013-08-07 07:36:00,63.2,61.0,29.90,ESE,112,2.1,4.0,95,0.06,,,0.28,Rainwise IP-100,2013-08-07 11:36:00,
2013-08-07 07:41:00,63.1,62.0,29.89,ESE,112,1.6,5.0,96,0.00,,,0.28,Rainwise IP-100,2013-08-07 11:41:00,
2013-08-07 07:46:00,63.2,62.0,29.88,SE,135,6.1,6.1,96,0.06,,,0.29,Rainwise IP-100,2013-08-07 11:46:00,
2013-08-07 07:51:00,63.3,62.0,29.87,ESE,112,5.1,6.0,96,0.12,,,0.30,Rainwise IP-100,2013-08-07 11:51:00,
2013-08-07 07:56:00,63.3,62.0,29.86,ESE,112,4.7,9.0,97,0.06,,,0.30,Rainwise IP-100,2013-08-07 11:56:00,
2013-08-07 08:01:00,63.3,62.0,29.84,ESE,112,10.0,11.0,97,0.00,,,0.30,Rainwise IP-100,2013-08-07 12:01:00,
2013-08-07 08:06:00,63.2,62.0,29.85,ESE,112,10.0,13.0,97,0.06,,,0.31,Rainwise IP-100,2013-08-07 12:06:00,
2013-08-07 08:11:00,63.2,62.0,29.84,ESE,112,8.9,13.0,97,0.06,,,0.31,Rainwise IP-100,2013-08-07 12:11:00,
2013-08-07 08:16:00,63.2,62.0,29.84,ESE,112,11.7,14.0,97,0.00,,,0.31,Rainwise IP-100,2013-08-07 12:16:00,
2013-08-07 08:21:00,63.2,62.0,29.85,ESE,112,12.8,14.0,97,0.00,,,0.31,Rainwise IP-100,2013-08-07 12:21:00,
2013-08-07 08:26:00,63.2,62.0,29.84,SE,135,8.2,15.0,97,0.00,,,0.31,Rainwise IP-100,2013-08-07 12:26:00,
2013-08-07 08:31:00,63.2,62.0,29.85,ESE,112,7.5,15.0,97,0.00,,,0.31,Rainwise IP-100,2013-08-07 12:31:00,
2013-08-07 08:36:00,63.2,62.0,29.85,ESE,112,11.7,15.0,97,0.00,,,0.31,Rainwise IP-100,2013-08-07 12:36:00,
2013-08-07 08:41:00,63.3,62.0,29.85,ESE,112,9.8,19.0,97,0.00,,,0.31,Rainwise IP-100,2013-08-07 12:41:00,
2013-08-07 08:46:00,63.4,62.0,29.84,ESE,112,11.2,13.0,97,0.00,,,0.31,Rainwise IP-100,2013-08-07 12:46:00,
2013-08-07 08:51:00,63.5,62.0,29.85,East,90,6.1,12.0,97,0.00,,,0.31,Rainwise IP-100,2013-08-07 12:51:00,
2013-08-07 08:56:00,63.8,62.0,29.84,ESE,112,3.5,11.0,97,0.00,,,0.31,Rainwise IP-100,2013-08-07 12:56:00,
2013-08-07 09:01:00,64.1,63.0,29.84,ESE,112,5.8,11.0,97,0.00,,,0.31,Rainwise IP-100,2013-08-07 13:01:00,
2013-08-07 09:06:00,64.5,63.0,29.85,ESE,112,11.4,12.0,97,0.00,,,0.31,Rainwise IP-100,2013-08-07 13:06:00,
2013-08-07 09:11:00,64.9,64.0,29.86,SE,135,3.3,12.0,96,0.00,,,0.31,Rainwise IP-100,2013-08-07 13:11:00,
2013-08-07 09:16:00,65.2,64.0,29.85,SSE,157,4.2,10.0,96,0.00,,,0.31,Rainwise IP-100,2013-08-07 13:16:00,
2013-08-07 09:21:00,65.3,63.0,29.86,ESE,112,4.9,8.0,95,0.00,,,0.31,Rainwise IP-100,2013-08-07 13:21:00,
2013-08-07 09:26:00,65.3,63.0,29.86,SSE,157,7.2,8.0,95,0.00,,,0.31,Rainwise IP-100,2013-08-07 13:26:00,
2013-08-07 09:31:00,65.5,64.0,29.86,SSE,157,5.8,8.0,95,0.00,,,0.31,Rainwise IP-100,2013-08-07 13:31:00,
2013-08-07 09:36:00,65.9,64.0,29.86,South,180,2.8,8.0,94,0.00,,,0.31,Rainwise IP-100,2013-08-07 13:36:00,
2013-08-07 09:41:00,66.3,64.0,29.86,SSW,202,9.1,10.0,94,0.00,,,0.31,Rainwise IP-100,2013-08-07 13:41:00,
2013-08-07 09:46:00,66.5,65.0,29.86,ESE,112,5.1,9.0,94,0.00,,,0.31,Rainwise IP-100,2013-08-07 13:46:00,
2013-08-07 09:51:00,66.7,65.0,29.86,SSE,157,4.2,10.0,94,0.00,,,0.31,Rainwise IP-100,2013-08-07 13:51:00,
2013-08-07 09:56:00,67.0,65.0,29.86,SE,135,8.6,10.0,93,0.00,,,0.31,Rainwise IP-100,2013-08-07 13:56:00,
2013-08-07 10:01:00,67.3,65.0,29.86,SSE,157,5.6,10.0,93,0.00,,,0.31,Rainwise IP-100,2013-08-07 14:01:00,
2013-08-07 10:06:00,67.7,65.0,29.85,ESE,112,4.0,10.0,92,0.00,,,0.31,Rainwise IP-100,2013-08-07 14:06:00,
2013-08-07 10:11:00,68.3,65.0,29.86,SSE,157,8.4,8.4,92,0.00,,,0.31,Rainwise IP-100,2013-08-07 14:11:00,
2013-08-07 10:16:00,68.8,66.0,29.86,SE,135,7.5,11.0,91,0.00,,,0.31,Rainwise IP-100,2013-08-07 14:16:00,
2013-08-07 10:21:00,69.1,66.0,29.86,East,90,3.3,10.0,90,0.00,,,0.31,Rainwise IP-100,2013-08-07 14:21:00,
2013-08-07 10:26:00,69.5,66.0,29.86,ESE,112,5.4,14.0,89,0.00,,,0.31,Rainwise IP-100,2013-08-07 14:26:00,
2013-08-07 10:31:00,69.9,66.0,29.86,SE,135,10.7,10.7,89,0.00,,,0.31,Rainwise IP-100,2013-08-07 14:31:00,
2013-08-07 10:36:00,70.2,66.0,29.85,SSE,157,4.2,11.0,88,0.00,,,0.31,Rainwise IP-100,2013-08-07 14:36:00,
2013-08-07 10:41:00,70.5,66.0,29.86,ESE,112,2.1,10.0,88,0.00,,,0.31,Rainwise IP-100,2013-08-07 14:41:00,
2013-08-07 10:46:00,70.9,67.0,29.85,ESE,112,7.0,8.0,88,0.00,,,0.31,Rainwise IP-100,2013-08-07 14:46:00,
2013-08-07 10:51:00,71.3,67.0,29.85,SE,135,7.2,8.0,87,0.00,,,0.31,Rainwise IP-100,2013-08-07 14:51:00,
2013-08-07 10:56:00,71.5,67.0,29.86,SSW,202,3.0,10.0,87,0.00,,,0.31,Rainwise IP-100,2013-08-07 14:56:00,
2013-08-07 11:01:00,71.9,68.0,29.86,SSE,157,4.9,14.0,87,0.00,,,0.31,Rainwise IP-100,2013-08-07 15:01:00,
2013-08-07 11:06:00,72.1,67.0,29.86,SSE,157,1.6,8.0,86,0.00,,,0.31,Rainwise IP-100,2013-08-07 15:06:00,
2013-08-07 11:11:00,71.8,67.0,29.86,South,180,7.7,12.0,86,0.00,,,0.31,Rainwise IP-100,2013-08-07 15:11:00,
2013-08-07 11:16:00,71.5,67.0,29.86,South,180,7.2,14.0,86,0.00,,,0.31,Rainwise IP-100,2013-08-07 15:16:00,
2013-08-07 11:21:00,71.3,67.0,29.86,SW,225,6.3,15.0,87,0.00,,,0.31,Rainwise IP-100,2013-08-07 15:21:00,
2013-08-07 11:26:00,71.4,67.0,29.86,SSW,202,13.5,16.0,87,0.00,,,0.31,Rainwise IP-100,2013-08-07 15:26:00,
2013-08-07 11:31:00,71.3,66.0,29.86,SSW,202,11.4,14.0,86,0.00,,,0.31,Rainwise IP-100,2013-08-07 15:31:00,
2013-08-07 11:36:00,71.0,66.0,29.86,SSW,202,9.8,13.0,87,0.00,,,0.31,Rainwise IP-100,2013-08-07 15:36:00,
2013-08-07 11:41:00,71.0,66.0,29.86,SSW,202,5.4,14.0,87,0.00,,,0.31,Rainwise IP-100,2013-08-07 15:41:00,
2013-08-07 11:46:00,71.2,67.0,29.86,SSW,202,5.4,12.0,88,0.00,,,0.31,Rainwise IP-100,2013-08-07 15:46:00,
2013-08-07 11:51:00,71.8,67.0,29.86,SE,135,4.4,15.0,87,0.00,,,0.31,Rainwise IP-100,2013-08-07 15:51:00,
2013-08-07 11:56:00,72.0,68.0,29.86,South,180,13.3,15.0,87,0.00,,,0.31,Rainwise IP-100,2013-08-07 15:56:00,
2013-08-07 12:01:00,72.1,68.0,29.86,SSW,202,15.2,16.0,87,0.00,,,0.31,Rainwise IP-100,2013-08-07 16:01:00,
2013-08-07 12:06:00,72.3,68.0,29.86,SSW,202,12.8,16.0,87,0.00,,,0.31,Rainwise IP-100,2013-08-07 16:06:00,
2013-08-07 12:11:00,72.4,68.0,29.86,WSW,247,12.1,14.0,87,0.00,,,0.31,Rainwise IP-100,2013-08-07 16:11:00,
2013-08-07 12:16:00,72.7,68.0,29.87,SSW,202,12.6,16.0,87,0.00,,,0.31,Rainwise IP-100,2013-08-07 16:16:00,
2013-08-07 12:21:00,73.2,69.0,29.87,SSE,157,7.7,14.0,86,0.00,,,0.31,Rainwise IP-100,2013-08-07 16:21:00,
2013-08-07 12:26:00,73.8,69.0,29.87,SSW,202,11.7,13.0,86,0.00,,,0.31,Rainwise IP-100,2013-08-07 16:26:00,
2013-08-07 12:31:00,74.0,69.0,29.87,SSW,202,8.9,15.0,85,0.00,,,0.31,Rainwise IP-100,2013-08-07 16:31:00,
2013-08-07 12:36:00,73.8,69.0,29.87,SSE,157,4.4,15.0,85,0.00,,,0.31,Rainwise IP-100,2013-08-07 16:36:00,
2013-08-07 12:41:00,74.0,69.0,29.87,SSW,202,7.9,16.0,85,0.00,,,0.31,Rainwise IP-100,2013-08-07 16:41:00,
2013-08-07 12:46:00,73.9,69.0,29.87,SSW,202,13.1,16.0,85,0.00,,,0.31,Rainwise IP-100,2013-08-07 16:46:00,
2013-08-07 12:51:00,73.6,69.0,29.87,SSW,202,16.8,17.0,86,0.00,,,0.31,Rainwise IP-100,2013-08-07 16:51:00,
2013-08-07 12:56:00,73.6,69.0,29.87,SSW,202,6.8,17.0,86,0.00,,,0.31,Rainwise IP-100,2013-08-07 16:56:00,
2013-08-07 13:01:00,73.8,69.0,29.88,WSW,247,7.5,17.0,87,0.00,,,0.31,Rainwise IP-100,2013-08-07 17:01:00,
2013-08-07 13:06:00,73.7,69.0,29.87,SW,225,13.5,16.0,87,0.00,,,0.31,Rainwise IP-100,2013-08-07 17:06:00,
2013-08-07 13:11:00,73.5,69.0,29.87,South,180,8.4,15.0,87,0.00,,,0.31,Rainwise IP-100,2013-08-07 17:11:00,
2013-08-07 13:16:00,73.6,69.0,29.87,SW,225,11.4,16.0,87,0.00,,,0.31,Rainwise IP-100,2013-08-07 17:16:00,
2013-08-07 13:21:00,73.6,69.0,29.87,South,180,5.8,17.0,87,0.00,,,0.31,Rainwise IP-100,2013-08-07 17:21:00,
2013-08-07 13:26:00,73.3,69.0,29.87,SSW,202,8.6,16.0,87,0.00,,,0.31,Rainwise IP-100,2013-08-07 17:26:00,
2013-08-07 13:31:00,73.3,69.0,29.87,SSW,202,10.7,15.0,87,0.00,,,0.31,Rainwise IP-100,2013-08-07 17:31:00,
2013-08-07 13:36:00,73.5,69.0,29.87,SW,225,8.9,17.0,87,0.00,,,0.31,Rainwise IP-100,2013-08-07 17:36:00,
2013-08-07 13:41:00,73.5,69.0,29.87,SW,225,10.0,15.0,87,0.00,,,0.31,Rainwise IP-100,2013-08-07 17:41:00,
2013-08-07 13:46:00,73.6,69.0,29.87,SW,225,6.3,13.0,86,0.00,,,0.31,Rainwise IP-100,2013-08-07 17:46:00,
2013-08-07 13:51:00,74.1,69.0,29.86,SW,225,4.4,13.0,85,0.00,,,0.31,Rainwise IP-100,2013-08-07 17:51:00,
2013-08-07 13:56:00,74.3,69.0,29.87,SSW,202,8.6,14.0,85,0.00,,,0.31,Rainwise IP-100,2013-08-07 17:56:00,
2013-08-07 14:01:00,74.1,69.0,29.86,SW,225,11.4,13.0,85,0.00,,,0.31,Rainwise IP-100,2013-08-07 18:01:00,
2013-08-07 14:06:00,73.9,69.0,29.87,SSW,202,4.2,13.0,85,0.00,,,0.31,Rainwise IP-100,2013-08-07 18:06:00,
2013-08-07 14:11:00,73.7,69.0,29.86,SSW,202,8.6,12.0,85,0.00,,,0.31,Rainwise IP-100,2013-08-07 18:11:00,
2013-08-07 14:16:00,73.3,69.0,29.87,SW,225,4.4,13.0,86,0.00,,,0.31,Rainwise IP-100,2013-08-07 18:16:00,
2013-08-07 14:21:00,73.0,69.0,29.87,South,180,4.7,11.0,86,0.00,,,0.31,Rainwise IP-100,2013-08-07 18:21:00,
2013-08-07 14:26:00,73.0,69.0,29.87,SSW,202,6.3,12.0,87,0.00,,,0.31,Rainwise IP-100,2013-08-07 18:26:00,
2013-08-07 14:31:00,73.0,69.0,29.87,SW,225,5.1,9.0,87,0.00,,,0.31,Rainwise IP-100,2013-08-07 18:31:00,
2013-08-07 14:36:00,73.0,69.0,29.87,WSW,247,4.4,9.0,87,0.00,,,0.31,Rainwise IP-100,2013-08-07 18:36:00,
2013-08-07 14:41:00,72.6,68.0,29.86,West,270,7.0,10.0,87,0.00,,,0.31,Rainwise IP-100,2013-08-07 18:41:00,
2013-08-07 14:46:00,72.5,69.0,29.87,SW,225,7.2,10.0,88,0.00,,,0.31,Rainwise IP-100,2013-08-07 18:46:00,
2013-08-07 14:51:00,72.8,69.0,29.87,SSW,202,5.8,12.0,88,0.00,,,0.31,Rainwise IP-100,2013-08-07 18:51:00,
2013-08-07 14:56:00,73.1,69.0,29.88,SSW,202,7.5,11.0,88,0.00,,,0.31,Rainwise IP-100,2013-08-07 18:56:00,
2013-08-07 15:01:00,73.4,69.0,29.88,SW,225,7.7,10.0,87,0.00,,,0.31,Rainwise IP-100,2013-08-07 19:01:00,
2013-08-07 15:06:00,73.2,69.0,29.87,SW,225,6.1,10.0,87,0.00,,,0.31,Rainwise IP-100,2013-08-07 19:06:00,
2013-08-07 15:11:00,72.8,69.0,29.88,SW,225,8.2,10.0,88,0.00,,,0.31,Rainwise IP-100,2013-08-07 19:11:00,
2013-08-07 15:16:00,73.0,69.0,29.87,SW,225,7.0,9.0,88,0.00,,,0.31,Rainwise IP-100,2013-08-07 19:16:00,
2013-08-07 15:21:00,73.6,70.0,29.87,WSW,247,7.5,10.0,88,0.00,,,0.31,Rainwise IP-100,2013-08-07 19:21:00,
2013-08-07 15:26:00,74.1,70.0,29.87,SW,225,7.5,9.0,87,0.00,,,0.31,Rainwise IP-100,2013-08-07 19:26:00,
2013-08-07 15:31:00,74.2,70.0,29.87,WSW,247,6.5,10.0,86,0.00,,,0.31,Rainwise IP-100,2013-08-07 19:31:00,
2013-08-07 15:36:00,74.2,70.0,29.87,WSW,247,7.2,9.0,86,0.00,,,0.31,Rainwise IP-100,2013-08-07 19:36:00,
2013-08-07 15:41:00,74.3,70.0,29.87,WSW,247,5.8,10.0,86,0.00,,,0.31,Rainwise IP-100,2013-08-07 19:41:00,
2013-08-07 15:46:00,73.8,69.0,29.87,WSW,247,5.4,8.0,86,0.00,,,0.31,Rainwise IP-100,2013-08-07 19:46:00,
2013-08-07 15:51:00,73.7,69.0,29.87,WSW,247,3.0,8.0,87,0.00,,,0.31,Rainwise IP-100,2013-08-07 19:51:00,
2013-08-07 15:56:00,74.4,70.0,29.87,WSW,247,5.6,7.0,87,0.00,,,0.31,Rainwise IP-100,2013-08-07 19:56:00,
2013-08-07 16:01:00,74.4,70.0,29.87,West,270,6.5,7.0,86,0.00,,,0.31,Rainwise IP-100,2013-08-07 20:01:00,
2013-08-07 16:06:00,74.2,70.0,29.87,West,270,5.4,8.0,86,0.00,,,0.31,Rainwise IP-100,2013-08-07 20:06:00,
2013-08-07 16:11:00,74.4,70.0,29.87,WNW,292,4.0,7.0,86,0.00,,,0.31,Rainwise IP-100,2013-08-07 20:11:00,
2013-08-07 16:16:00,74.2,69.0,29.87,West,270,5.8,6.0,85,0.00,,,0.31,Rainwise IP-100,2013-08-07 20:16:00,
2013-08-07 16:21:00,74.1,69.0,29.87,West,270,5.8,6.0,85,0.00,,,0.31,Rainwise IP-100,2013-08-07 20:21:00,
2013-08-07 16:26:00,74.4,69.0,29.88,West,270,2.6,7.0,85,0.00,,,0.31,Rainwise IP-100,2013-08-07 20:26:00,
2013-08-07 16:31:00,74.5,70.0,29.88,WNW,292,2.8,7.0,85,0.00,,,0.31,Rainwise IP-100,2013-08-07 20:31:00,
2013-08-07 16:36:00,74.4,69.0,29.88,NNW,337,3.3,7.0,85,0.00,,,0.31,Rainwise IP-100,2013-08-07 20:36:00,
2013-08-07 16:41:00,74.5,69.0,29.88,North,360,4.4,7.0,84,0.00,,,0.31,Rainwise IP-100,2013-08-07 20:41:00,
2013-08-07 16:46:00,74.7,69.0,29.88,NNW,337,9.6,9.6,84,0.00,,,0.31,Rainwise IP-100,2013-08-07 20:46:00,
2013-08-07 16:51:00,74.5,69.0,29.88,West,270,3.5,11.0,84,0.00,,,0.31,Rainwise IP-100,2013-08-07 20:51:00,
2013-08-07 16:56:00,74.5,70.0,29.88,NW,315,7.0,10.0,85,0.00,,,0.31,Rainwise IP-100,2013-08-07 20:56:00,
2013-08-07 17:01:00,74.7,69.0,29.88,WNW,292,4.4,9.0,84,0.00,,,0.31,Rainwise IP-100,2013-08-07 21:01:00,
2013-08-07 17:06:00,75.2,69.0,29.88,NNW,337,9.1,9.1,83,0.00,,,0.31,Rainwise IP-100,2013-08-07 21:06:00,
2013-08-07 17:11:00,74.9,69.0,29.88,NNW,337,8.9,12.0,83,0.00,,,0.31,Rainwise IP-100,2013-08-07 21:11:00,
2013-08-07 17:16:00,74.3,69.0,29.88,NNW,337,8.2,12.0,84,0.00,,,0.31,Rainwise IP-100,2013-08-07 21:16:00,
2013-08-07 17:21:00,73.9,69.0,29.88,North,360,6.8,14.0,85,0.00,,,0.31,Rainwise IP-100,2013-08-07 21:21:00,
2013-08-07 17:26:00,73.2,69.0,29.88,North,360,10.3,15.0,86,0.00,,,0.31,Rainwise IP-100,2013-08-07 21:26:00,
2013-08-07 17:31:00,72.5,69.0,29.88,NNE,22,11.4,16.0,88,0.00,,,0.31,Rainwise IP-100,2013-08-07 21:31:00,
2013-08-07 17:36:00,72.1,68.0,29.88,North,360,8.9,21.0,89,0.00,,,0.31,Rainwise IP-100,2013-08-07 21:36:00,
2013-08-07 17:41:00,71.7,68.0,29.88,NNW,337,12.8,18.0,89,0.00,,,0.31,Rainwise IP-100,2013-08-07 21:41:00,
2013-08-07 17:46:00,71.5,68.0,29.88,NNW,337,14.9,20.0,90,0.00,,,0.31,Rainwise IP-100,2013-08-07 21:46:00,
2013-08-07 17:51:00,71.2,68.0,29.89,NNW,337,13.5,18.0,90,0.00,,,0.31,Rainwise IP-100,2013-08-07 21:51:00,
2013-08-07 17:56:00,70.8,67.0,29.89,NNW,337,6.3,17.0,91,0.00,,,0.31,Rainwise IP-100,2013-08-07 21:56:00,
2013-08-07 18:01:00,70.6,68.0,29.89,North,360,9.8,19.0,92,0.00,,,0.31,Rainwise IP-100,2013-08-07 22:01:00,
2013-08-07 18:06:00,70.8,68.0,29.89,NNW,337,11.0,17.0,92,0.00,,,0.31,Rainwise IP-100,2013-08-07 22:06:00,
2013-08-07 18:11:00,70.8,68.0,29.89,NNW,337,9.6,18.0,92,0.00,,,0.31,Rainwise IP-100,2013-08-07 22:11:00,
2013-08-07 18:16:00,70.8,68.0,29.88,NNW,337,14.5,17.0,92,0.00,,,0.31,Rainwise IP-100,2013-08-07 22:16:00,
2013-08-07 18:21:00,70.7,68.0,29.89,North,360,11.9,17.0,92,0.00,,,0.31,Rainwise IP-100,2013-08-07 22:21:00,
2013-08-07 18:26:00,70.7,67.0,29.89,NNE,22,11.2,18.0,91,0.00,,,0.31,Rainwise IP-100,2013-08-07 22:26:00,
2013-08-07 18:31:00,70.7,67.0,29.89,NNW,337,10.5,20.0,91,0.00,,,0.31,Rainwise IP-100,2013-08-07 22:31:00,
2013-08-07 18:36:00,70.6,67.0,29.89,North,360,9.3,20.0,91,0.00,,,0.31,Rainwise IP-100,2013-08-07 22:36:00,
2013-08-07 18:41:00,70.5,67.0,29.89,NNW,337,20.1,20.1,90,0.00,,,0.31,Rainwise IP-100,2013-08-07 22:41:00,
2013-08-07 18:46:00,70.2,67.0,29.88,NNW,337,19.6,21.0,90,0.00,,,0.31,Rainwise IP-100,2013-08-07 22:46:00,
2013-08-07 18:51:00,70.1,67.0,29.89,NNW,337,9.6,23.0,90,0.00,,,0.31,Rainwise IP-100,2013-08-07 22:51:00,
2013-08-07 18:56:00,70.1,66.0,29.89,NNW,337,12.8,19.0,89,0.00,,,0.31,Rainwise IP-100,2013-08-07 22:56:00,
2013-08-07 19:01:00,70.1,66.0,29.89,NNW,337,13.1,20.0,88,0.00,,,0.31,Rainwise IP-100,2013-08-07 23:01:00,
2013-08-07 19:06:00,69.8,66.0,29.90,NNE,22,8.2,18.0,88,0.00,,,0.31,Rainwise IP-100,2013-08-07 23:06:00,
2013-08-07 19:11:00,69.8,66.0,29.90,North,360,11.4,18.0,88,0.00,,,0.31,Rainwise IP-100,2013-08-07 23:11:00,
2013-08-07 19:16:00,69.8,66.0,29.89,NNW,337,7.7,18.0,87,0.00,,,0.31,Rainwise IP-100,2013-08-07 23:16:00,
2013-08-07 19:21:00,69.5,66.0,29.89,NNE,22,9.3,21.0,87,0.00,,,0.31,Rainwise IP-100,2013-08-07 23:21:00,
2013-08-07 19:26:00,69.6,66.0,29.90,NNW,337,8.2,16.0,87,0.00,,,0.31,Rainwise IP-100,2013-08-07 23:26:00,
2013-08-07 19:31:00,70.0,66.0,29.90,North,360,6.5,15.0,86,0.00,,,0.31,Rainwise IP-100,2013-08-07 23:31:00,
2013-08-07 19:36:00,70.2,66.0,29.90,North,360,8.6,16.0,86,0.00,,,0.31,Rainwise IP-100,2013-08-07 23:36:00,
2013-08-07 19:41:00,70.4,66.0,29.90,NNW,337,7.9,12.0,85,0.00,,,0.31,Rainwise IP-100,2013-08-07 23:41:00,
2013-08-07 19:46:00,70.3,65.0,29.90,North,360,9.6,18.0,85,0.00,,,0.31,Rainwise IP-100,2013-08-07 23:46:00,
2013-08-07 19:51:00,70.1,65.0,29.91,NNE,22,4.9,13.0,85,0.00,,,0.31,Rainwise IP-100,2013-08-07 23:51:00,
2013-08-07 19:56:00,70.0,66.0,29.91,NNW,337,10.3,13.0,86,0.00,,,0.31,Rainwise IP-100,2013-08-07 23:56:00,
2013-08-07 20:01:00,69.9,65.0,29.91,WNW,292,4.2,11.0,85,0.00,,,0.31,Rainwise IP-100,2013-08-08 00:01:00,
2013-08-07 20:06:00,69.9,65.0,29.91,NNW,337,8.2,14.0,85,0.00,,,0.31,Rainwise IP-100,2013-08-08 00:06:00,
2013-08-07 20:11:00,69.7,65.0,29.91,North,360,6.1,12.0,85,0.00,,,0.31,Rainwise IP-100,2013-08-08 00:11:00,
2013-08-07 20:16:00,69.4,65.0,29.91,NNE,22,9.8,13.0,86,0.00,,,0.31,Rainwise IP-100,2013-08-08 00:16:00,
2013-08-07 20:21:00,69.2,65.0,29.91,North,360,10.7,12.0,86,0.00,,,0.31,Rainwise IP-100,2013-08-08 00:21:00,
2013-08-07 20:26:00,69.1,64.0,29.91,North,360,7.7,11.0,86,0.00,,,0.31,Rainwise IP-100,2013-08-08 00:26:00,
2013-08-07 20:31:00,69.1,65.0,29.91,North,360,4.2,10.0,87,0.00,,,0.31,Rainwise IP-100,2013-08-08 00:31:00,
2013-08-07 20:36:00,69.0,65.0,29.92,NNW,337,7.0,10.0,87,0.00,,,0.31,Rainwise IP-100,2013-08-08 00:36:00,
2013-08-07 20:41:00,69.0,65.0,29.92,North,360,2.6,10.0,87,0.00,,,0.31,Rainwise IP-100,2013-08-08 00:41:00,
2013-08-07 20:46:00,69.0,65.0,29.92,NNW,337,10.0,11.0,87,0.00,,,0.31,Rainwise IP-100,2013-08-08 00:46:00,
2013-08-07 20:51:00,68.8,64.0,29.92,NNW,337,9.1,10.0,87,0.00,,,0.31,Rainwise IP-100,2013-08-08 00:51:00,
2013-08-07 20:56:00,68.4,65.0,29.92,NNW,337,6.1,9.0,89,0.00,,,0.31,Rainwise IP-100,2013-08-08 00:56:00,
2013-08-07 21:01:00,68.1,65.0,29.92,NNW,337,5.1,8.0,90,0.00,,,0.31,Rainwise IP-100,2013-08-08 01:01:00,
2013-08-07 21:06:00,67.9,65.0,29.92,NNW,337,11.2,12.0,91,0.00,,,0.31,Rainwise IP-100,2013-08-08 01:06:00,
2013-08-07 21:11:00,67.7,65.0,29.92,NNW,337,11.4,13.0,91,0.00,,,0.31,Rainwise IP-100,2013-08-08 01:11:00,
2013-08-07 21:16:00,67.4,65.0,29.92,NNW,337,8.4,13.0,92,0.00,,,0.31,Rainwise IP-100,2013-08-08 01:16:00,
2013-08-07 21:21:00,67.2,65.0,29.92,North,360,7.0,13.0,92,0.00,,,0.31,Rainwise IP-100,2013-08-08 01:21:00,
2013-08-07 21:26:00,67.1,65.0,29.92,NNW,337,7.0,13.0,93,0.00,,,0.31,Rainwise IP-100,2013-08-08 01:26:00,
2013-08-07 21:31:00,67.1,65.0,29.93,WNW,292,4.4,12.0,93,0.00,,,0.31,Rainwise IP-100,2013-08-08 01:31:00,
2013-08-07 21:36:00,67.0,65.0,29.93,North,360,6.5,11.0,94,0.00,,,0.31,Rainwise IP-100,2013-08-08 01:36:00,
2013-08-07 21:41:00,67.0,65.0,29.94,NNW,337,5.6,12.0,94,0.00,,,0.31,Rainwise IP-100,2013-08-08 01:41:00,
2013-08-07 21:46:00,67.1,65.0,29.94,North,360,5.6,12.0,94,0.00,,,0.31,Rainwise IP-100,2013-08-08 01:46:00,
2013-08-07 21:51:00,67.0,65.0,29.94,WNW,292,4.2,10.0,94,0.00,,,0.31,Rainwise IP-100,2013-08-08 01:51:00,
2013-08-07 21:56:00,67.0,65.0,29.95,North,360,7.2,12.0,94,0.00,,,0.31,Rainwise IP-100,2013-08-08 01:56:00,
2013-08-07 22:01:00,67.0,65.0,29.95,North,360,7.2,12.0,94,0.00,,,0.31,Rainwise IP-100,2013-08-08 02:01:00,
2013-08-07 22:06:00,66.9,65.0,29.95,North,360,4.7,14.0,94,0.00,,,0.31,Rainwise IP-100,2013-08-08 02:06:00,
2013-08-07 22:11:00,66.9,65.0,29.95,North,360,6.5,14.0,94,0.00,,,0.31,Rainwise IP-100,2013-08-08 02:11:00,
2013-08-07 22:16:00,66.8,65.0,29.96,NNW,337,9.6,13.0,94,0.00,,,0.31,Rainwise IP-100,2013-08-08 02:16:00,
2013-08-07 22:21:00,66.7,65.0,29.96,NNW,337,6.8,12.0,94,0.00,,,0.31,Rainwise IP-100,2013-08-08 02:21:00,
2013-08-07 22:26:00,66.7,65.0,29.96,North,360,4.9,11.0,94,0.00,,,0.31,Rainwise IP-100,2013-08-08 02:26:00,
2013-08-07 22:31:00,66.7,65.0,29.96,NNE,22,5.4,11.0,94,0.00,,,0.31,Rainwise IP-100,2013-08-08 02:31:00,
2013-08-07 22:36:00,66.6,65.0,29.97,North,360,8.9,10.0,95,0.00,,,0.31,Rainwise IP-100,2013-08-08 02:36:00,
2013-08-07 22:41:00,66.5,65.0,29.97,NNE,22,8.2,12.0,95,0.00,,,0.31,Rainwise IP-100,2013-08-08 02:41:00,
2013-08-07 22:46:00,66.4,65.0,29.97,NNW,337,6.5,12.0,95,0.00,,,0.31,Rainwise IP-100,2013-08-08 02:46:00,
2013-08-07 22:51:00,66.4,65.0,29.97,WNW,292,5.8,13.0,95,0.00,,,0.31,Rainwise IP-100,2013-08-08 02:51:00,
2013-08-07 22:56:00,66.4,65.0,29.97,NNE,22,5.1,11.0,95,0.00,,,0.31,Rainwise IP-100,2013-08-08 02:56:00,
2013-08-07 23:01:00,66.3,65.0,29.97,NNW,337,5.1,12.0,95,0.00,,,0.31,Rainwise IP-100,2013-08-08 03:01:00,
2013-08-07 23:06:00,66.2,65.0,29.97,NNE,22,5.8,12.0,95,0.00,,,0.31,Rainwise IP-100,2013-08-08 03:06:00,
2013-08-07 23:11:00,66.2,65.0,29.97,NNW,337,5.4,9.0,95,0.00,,,0.31,Rainwise IP-100,2013-08-08 03:11:00,
2013-08-07 23:16:00,66.2,65.0,29.97,NNE,22,6.3,7.0,95,0.00,,,0.31,Rainwise IP-100,2013-08-08 03:16:00,
2013-08-07 23:21:00,66.2,65.0,29.97,NW,315,4.2,8.0,95,0.00,,,0.31,Rainwise IP-100,2013-08-08 03:21:00,
2013-08-07 23:26:00,66.2,65.0,29.97,NNW,337,5.6,7.0,95,0.00,,,0.31,Rainwise IP-100,2013-08-08 03:26:00,
2013-08-07 23:31:00,66.2,65.0,29.97,NNE,22,1.6,7.0,95,0.00,,,0.31,Rainwise IP-100,2013-08-08 03:31:00,
2013-08-07 23:36:00,66.2,65.0,29.97,NNE,22,3.5,10.0,95,0.00,,,0.31,Rainwise IP-100,2013-08-08 03:36:00,
2013-08-07 23:41:00,66.2,65.0,29.97,North,360,7.0,7.0,95,0.00,,,0.31,Rainwise IP-100,2013-08-08 03:41:00,
2013-08-07 23:46:00,66.3,64.0,29.97,NE,45,4.7,8.0,94,0.00,,,0.31,Rainwise IP-100,2013-08-08 03:46:00,
2013-08-07 23:51:00,66.5,64.0,29.97,NNE,22,6.8,8.0,93,0.00,,,0.31,Rainwise IP-100,2013-08-08 03:51:00,
2013-08-07 23:56:00,66.7,64.0,29.98,North,360,6.3,8.0,92,0.00,,,0.31,Rainwise IP-100,2013-08-08 03:56:00,